This is the latest recevied weather packets stored in our database for station/object IW8RUI-5. If no packets are shown the sender has not sent any weather packets the latest 1 day(s).
| Time | Temp. | Humidity | Pressure | Rain* | Wind** | Luminosity | Snow |
|---|---|---|---|---|---|---|---|
| 1778080467 | 13.89° C | 10% | 1010 hPa | 0 mm | - | - | - |
| 1778080167 | 14.44° C | 10% | 1010 hPa | 0 mm | - | - | - |
| 1778079867 | 15° C | 10% | 1010 hPa | 0 mm | - | - | - |
| 1778079567 | 15.56° C | 10% | 1009 hPa | 0 mm | - | - | - |
| 1778079267 | 17.22° C | 10% | 1009 hPa | 0 mm | - | - | - |
| 1778078967 | 18.33° C | 10% | 1009 hPa | 0 mm | - | - | - |
| 1778078367 | 17.78° C | 10% | 1009 hPa | 0 mm | - | - | - |
| 1778078067 | 17.78° C | 10% | 1009 hPa | 0 mm | - | - | - |
| 1778077467 | 17.78° C | 10% | 1009 hPa | 0 mm | - | - | - |
| 1778077167 | 17.22° C | 10% | 1009 hPa | 0 mm | - | - | - |
| 1778076867 | 17.22° C | 10% | 1009 hPa | 0 mm | - | - | - |
| 1778076267 | 17.22° C | 10% | 1009 hPa | 0 mm | - | - | - |
| 1778075967 | 17.22° C | 10% | 1009 hPa | 0 mm | - | - | - |
| 1778075667 | 17.22° C | 13% | 1009 hPa | 0 mm | - | - | - |
| 1778075367 | 16.67° C | 11% | 1009 hPa | 0 mm | - | - | - |
| 1778075067 | 16.11° C | 11% | 1010 hPa | 0 mm | - | - | - |
| 1778074767 | 16.11° C | 11% | 1010 hPa | 0 mm | - | - | - |
| 1778074467 | 15.56° C | 11% | 1010 hPa | 0 mm | - | - | - |
| 1778074167 | 15.56° C | 14% | 1010 hPa | 0 mm | - | - | - |
| 1778073867 | 16.11° C | 16% | 1010 hPa | 0 mm | - | - | - |
| 1778073267 | 16.11° C | 11% | 1010 hPa | 0 mm | - | - | - |
| 1778072967 | 16.11° C | 10% | 1010 hPa | 0 mm | - | - | - |
| 1778072667 | 16.11° C | 11% | 1010 hPa | 0 mm | - | - | - |
| 1778072067 | 16.11° C | 11% | 1010 hPa | 0 mm | - | - | - |
| 1778071767 | 16.67° C | 13% | 1010 hPa | 0 mm | - | - | - |
* Rain latest hour (hover to see other rain measurements)
** Current wind speed in m/s (hover to see current wind gust speed)